Flag Weather past 2 weeks in Rishon LeZion, Israel

Now
55 °F

Passing clouds.


Feels Like: 55 °F
Forecast: 53 / 66 °F
Wind: 5 mph from Southeast

Location: Ben Gurion International Airport

Current Time: Nov 28, 2014 at 2:21:26 AM

Latest Report: Nov 28, 2014 at 1:50 AM


Visibility: N/A

Pressure: 30.12 "Hg

Humidity: 88%

Dew point: 52 °F

Location of Rishon LeZionLocation

Historic Weather in Rishon LeZion — Graph

°F

Rishon LeZion temperature yesterday

Maximum temperature yesterday: 66 °F (at 1:50 PM)
Minimum temperature yesterday: 54 °F (at 4:50 AM)
Average temperature yesterday: 58 °F

Past Weeks' High & Low Weather Summary

 TemperatureHumidityPressure
High81 °F (Nov 14, 11:50 AM)94% (Nov 16, 5:50 AM)30.18 "Hg (Nov 16, 5:50 AM)
Low52 °F (Nov 25, 3:20 AM)30% (Nov 19, 3:20 PM)29.86 "Hg (Nov 14, 1:20 PM)
Average64 °F73%29.98 "Hg
* Reported Nov 13 1:20 AM — Nov 28 1:20 AM, Rishon LeZion, Weather by CustomWeather, © 2014

Note: Actual official high and low records may vary slightly from our data, if they occured in-between our weather recording intervals... More about our weather records

Advertising

Rishon LeZion weather history for previous 24 hours

 ConditionsComfort  
Time TempWeatherWind HumidityBarometerVisibility
1:20 AM
Nov 28
55 °FPassing clouds.5 mph94%30.12 "HgN/A
12:50 AM55 °FPassing clouds.6 mph88%30.12 "HgN/A
12:20 AM57 °FPassing clouds.6 mph88%30.12 "HgN/A
11:50 PM
Nov 27
57 °FPassing clouds.7 mph88%30.12 "HgN/A
11:20 PM57 °FPassing clouds.7 mph88%30.12 "HgN/A
10:50 PM57 °FPassing clouds.5 mph88%30.12 "HgN/A
10:20 PM57 °FPassing clouds.9 mph88%30.12 "HgN/A
9:50 PM57 °FPassing clouds.7 mph88%30.12 "HgN/A
9:20 PM57 °FPassing clouds.8 mph94%30.12 "HgN/A
8:50 PM57 °FPassing clouds.7 mph88%30.12 "HgN/A
8:20 PM57 °FPassing clouds.7 mph88%30.09 "HgN/A
7:50 PM57 °FLight rain. Passing clouds.6 mph88%30.09 "HgN/A
7:20 PM57 °FLight rain. Passing clouds.7 mph88%30.09 "HgN/A
6:50 PM57 °FPassing clouds.6 mph88%30.09 "HgN/A
6:20 PM57 °FPassing clouds.8 mph94%30.07 "HgN/A
5:50 PM57 °FRain. Passing clouds.7 mph88%30.07 "HgN/A
5:20 PM59 °FRain. Passing clouds.6 mph82%30.07 "HgN/A
4:50 PM59 °FHeavy rain. Passing clouds.5 mph82%30.07 "Hg3 mi
4:20 PM61 °FPartly sunny.6 mph77%30.04 "HgN/A
3:50 PM61 °FScattered clouds.3 mph72%30.04 "HgN/A
3:20 PM61 °FScattered clouds.1 mph77%30.04 "HgN/A
2:50 PM59 °FRain. Scattered clouds.2 mph77%30.04 "Hg6 mi
2:20 PM64 °FScattered clouds.5 mph68%30.04 "HgN/A
1:50 PM66 °FPassing clouds.3 mph64%30.01 "HgN/A
1:20 PM64 °FPassing clouds.1 mph78%30.01 "HgN/A
12:50 PM63 °FRain. Scattered clouds.5 mph77%30.01 "Hg5 mi
12:20 PM61 °FScattered clouds.8 mph83%30.04 "HgN/A
11:50 AM59 °FScattered clouds.9 mph88%30.04 "HgN/A
11:20 AM59 °FScattered clouds.15 mph82%30.04 "HgN/A
10:50 AM59 °FScattered clouds.13 mph82%30.04 "HgN/A
10:20 AM57 °FPartly sunny.14 mph88%30.04 "HgN/A
9:50 AM57 °FScattered clouds.14 mph88%30.04 "HgN/A
9:20 AM57 °FScattered clouds.10 mph88%30.07 "HgN/A
8:50 AM55 °FScattered clouds.13 mph88%30.04 "HgN/A
8:20 AM54 °FScattered clouds.12 mph94%30.04 "HgN/A
7:50 AM55 °FScattered clouds.13 mph88%30.04 "HgN/A
7:20 AM55 °FScattered clouds.12 mph88%30.01 "HgN/A
6:50 AM54 °FBroken clouds.12 mph94%30.01 "HgN/A
6:20 AM54 °FBroken clouds.13 mph94%30.01 "HgN/A
5:50 AM54 °FPassing clouds.14 mph94%30.01 "HgN/A
5:20 AM54 °FLight rain. Partly cloudy.12 mph94%30.01 "Hg6 mi
4:50 AM54 °FPassing clouds.13 mph94%29.98 "HgN/A
4:20 AM55 °FPassing clouds.12 mph88%29.98 "HgN/A
3:50 AM55 °FPassing clouds.13 mph88%29.98 "HgN/A
3:20 AM55 °FRain. Passing clouds.9 mph88%29.98 "Hg5 mi
2:50 AM57 °FPassing clouds.13 mph82%29.98 "HgN/A
2:20 AM57 °FPassing clouds.8 mph88%29.98 "HgN/A
Weather by CustomWeather, © 2014

See weather overviewHow to use our weather pages